Regional Weather Roundup
Issued by NWS Sterling, VA

Home | Current Version | Previous Version | Graphics & Text | Print | Product List | Glossary On
Versions: 1 2 3 4 5 6 7 8 9 10 11 12 13 14 15 16 17 18 19 20 21 22 23 24 25 26 27 28 29 30 31 32 33 34 35 36 37 38 39 40 41 42 43 44 45 46 47 48 49 50
000
ASUS41 KLWX 181310
RWRLWX

REGIONAL WEATHER ROUNDUP
NATIONAL WEATHER SERVICE BALTIMORE MD/WASHINGTON DC
900 AM EDT THU SEP 18 2014

Note: "FAIR" indicates few or no clouds below 12,000 feet
with no significant weather and/or obstructions to visibility.
 TC=TEMPERATURE CELSIUS

 * =Non NWS site. Station does not report precipitation (e.g. rain,
    snow, etc.), thunder, or fog.

DCZ001-MDZ009-015-VAZ040>042-051-053>054-181400-
WASHINGTON METRO

CITY           SKY/WX    TMP DP  RH WIND       PRES   REMARKS
WASHINGTON NAT CLOUDY    68  58  70 CALM      30.01S
DULLES         PTSUNNY   60  56  86 NW5       30.01S
ANDREWS AFB    PTSUNNY   64  58  82 S1        30.00S
QUANTICO       PTSUNNY   65  59  81 CALM      30.01F
COLLEGE PARK*  CLOUDY    63  57  82 CALM      30.00S
LEESBURG*      CLOUDY    61  55  82 CALM      30.02S
GAITHERSBURG*  CLOUDY    63  55  77 CALM      30.04S

$$

MDZ006>007-011-014-181400-
BALTIMORE METRO

CITY           SKY/WX    TMP DP  RH WIND       PRES   REMARKS
BWI AIRPORT    PTSUNNY   63  56  78 CALM      30.00S
MD SCIENCE CTR   N/A     66  55  67 MISG      30.01S
MARTIN STATE   PTSUNNY   63  61  94 CALM      30.02S
ANNAPOLIS      MOSUNNY   66  54  65 NW3       30.00S
FORT MEADE*    CLOUDY    59  55  88 CALM      30.03S

$$

MDZ012-015-019>023-181400-
MARYLAND EASTERN SHORE

CITY           SKY/WX    TMP DP  RH WIND       PRES   REMARKS
OCEAN CITY     SUNNY     67  58  72 NW3       30.01R
SALISBURY      SUNNY     65  56  72 CALM      30.01R
BAY BRIDGE AP*   N/A     68  55  64 W3        30.01R
CAMBRIDGE*     MOSUNNY   63  55  77 CALM      30.00S
EASTON*        PTSUNNY   66  57  72 CALM      30.04R

$$

MDZ017>025-181400-
SOUTHERN MARYLAND

CITY           SKY/WX    TMP DP  RH WIND       PRES   REMARKS
PATUXENT RIVER PTSUNNY   67  60  78 W3        30.01R
ST INIGOES     PTSUNNY   69  61  75 CALM      30.00S
LEONARDTOWN*   CLOUDY    64  59  82 W3        30.02R

$$

MDZ003>005-181400-
NORTH CENTRAL MARYLAND

CITY           SKY/WX    TMP DP  RH WIND       PRES   REMARKS
FREDERICK*     PTSUNNY   57  55  94 CALM      30.05R
HAGERSTOWN APT PTSUNNY   55  51  86 NW5       30.02R
WESTMINSTER*   MOSUNNY   63  54  72 CALM      30.01S

$$

MDZ501>502-181400-
WESTERN MARYLAND

CITY           SKY/WX    TMP DP  RH WIND       PRES   REMARKS
OAKLAND*       PTSUNNY   54  50  87 CALM      30.07R
CUMBERLAND*    MOSUNNY   55  52  88 CALM      30.08R

$$

VAZ025>031-181400-
SHENANDOAH VALLEY

CITY           SKY/WX    TMP DP  RH WIND       PRES   REMARKS
WINCHESTER*    PTSUNNY   59  54  82 CALM      30.02S
STAUNTON*      PTSUNNY   56  52  88 CALM      30.05R

$$

WVZ021-048>050-054>055-181400-
EASTERN WEST VIRGINIA PANHANDLE

CITY           SKY/WX    TMP DP  RH WIND       PRES   REMARKS
MARTINSBURG    CLOUDY    58  50  75 CALM      30.02S
PETERSBURG*    MOSUNNY   55  53  92 CALM      30.05S

$$

VAZ036>039-050-181400-
CENTRAL FOOTHILLS

CITY           SKY/WX    TMP DP  RH WIND       PRES   REMARKS
CHARLOTTESVILL MOSUNNY   59  55  87 SW3       30.01S
ORANGE*        MOSUNNY   59  55  88 CALM      30.02R

$$

VAZ055>057-181400-
NORTH AND CENTRAL PIEDMONT

CITY           SKY/WX    TMP DP  RH WIND       PRES   REMARKS
FREDERICKSBRG* MOSUNNY   62  60  94 CALM      30.00S
STAFFORD*      MOSUNNY   61  61 100 CALM      30.05S

$$

NCZ024-NYZ072-PAZ021-071-VAZ022-071-181400-
OTHER REGIONAL OBSERVATIONS

CITY           SKY/WX    TMP DP  RH WIND       PRES   REMARKS
NEW YORK CITY  SUNNY     62  47  57 VRB3      30.03S
PHILADELPHIA   MOSUNNY   65  51  60 NW3       30.01S
PITTSBURGH     MOSUNNY   57  50  77 NE5       30.06
ROANOKE        PTSUNNY   61  56  83 CALM      30.05R
RICHMOND       MOSUNNY   66  60  81 CALM      30.01R
RALEIGH        MOSUNNY   66  60  81 E5        30.01R

$$

ANZ530>537-181400-
MARINE OBSERVATIONS

STATION/POSITION TIME  TEMP    WIND        PRES
                       AIR SEA DIR/SP/G
                 (UTC) (F)     (DEG/KT/KT) (MB)
THOMAS PT LIGHT  1300   65 74  280/  3/  4 1017.1R
BALT KEY BRIDGE  1300   63     360/  2/  3 1015.9R
COVE POINT       1300   68     210/  2/  3 1015.8R
LEWISETTA        1300   67 73  200/  2/  3 1015.5R
SOLOMONS ISLAND  1300      76                N/A
PINEY POINT      1300          300/  5/  6   N/A

$$




USA.gov is the U.S. government's official web portal to all federal, state and local government web resources and services.